This demonstration page uses our WeatherBlox Daily Observations layout. Learn more.

41.86663, -103.66717

Hourly Observations for December 8, 2019

Temp ( °F °C ) Dew Point ( °F °C ) Humidity (%) Winds ( mph kmh ) Pressure ( in mb ) Visibility ( mi km ) Precip ( " mm )
12:53 am 00:53 Clear 35 1.7 29 -1.7 78 78 NNW 3 6 29.85 1011 10 16.0934 0 0
1:53 am 01:53 Clear 32 0 29 -1.7 88 88 NNW 5 7 29.85 1011 10 16.0934 0 0
2:53 am 02:53 Clear 32 0 29 -1.7 88 88 Calm 29.83 1010 10 16.0934 0 0
3:53 am 03:53 Clear 31 -0.6 28 -2.2 89 89 N 3 6 29.81 1010 10 16.0934 0 0
4:53 am 04:53 Clear 34 1.1 30 -1.1 85 85 NNE 8 13 29.78 1009 10 16.0934 0 0
5:53 am 05:53 Clear 31 -0.6 28 -2.2 89 89 NNW 6 9 29.78 1009 10 16.0934 0 0
6:53 am 06:53 Clear 32 0 29 -1.7 88 88 Calm 29.78 1009 10 16.0934 0 0
7:53 am 07:53 Sunny 30 -1.1 28 -2.2 92 92 ENE 5 7 29.78 1009 10 16.0934 0 0
8:53 am 08:53 Sunny 35 1.7 30 -1.1 82 82 E 7 11 29.78 1008 10 16.0934 0 0
9:53 am 09:53 Sunny 41 5 32 0 70 70 SE 5 7 29.75 1008 10 16.0934 0 0
10:53 am 10:53 Sunny 50 10 33 0.6 52 52 Calm 29.71 1006 10 16.0934 0 0
11:53 am 11:53 Mostly Cloudy 52 11.1 34 1.1 50 50 Calm 29.67 1005 10 16.0934 0 0
12:53 pm 12:53 Sunny 56 13.3 34 1.1 44 44 VRB 3 6 29.62 1003 10 16.0934 0 0
1:53 pm 13:53 Sunny 57 13.9 31 -0.6 37 37 SSW 3 6 29.58 1002 10 16.0934 0 0
2:53 pm 14:53 Partly Cloudy 53 11.7 35 1.7 51 51 SE 5 7 29.58 1002 10 16.0934 0 0
3:53 pm 15:53 Sunny 48 8.9 36 2.2 63 63 VRB 3 6 29.58 1002 10 16.0934 0 0
4:53 pm 16:53 Mostly Clear 47 8.3 32 0 56 56 WNW 6 9 29.59 1002 10 16.0934 0 0
5:53 pm 17:53 Mostly Clear 46 7.8 33 0.6 61 61 W 12 19 29.62 1003 10 16.0934 0 0
6:53 pm 18:53 Clear 47 8.3 32 0 56 56 W 17 28 29.63 1003 10 16.0934 0 0
7:53 pm 19:53 Clear 40 4.4 31 -0.6 70 70 NNW 23 37 29.71 1006 10 16.0934 0 0
8:53 pm 20:53 Cloudy 35 1.7 27 -2.8 72 72 WNW 18 30 29.76 1008 10 16.0934 0 0
9:53 pm 21:53 Cloudy 33 0.6 26 -3.3 75 75 NNW 18 30 29.83 1010 10 16.0934 0 0
10:53 pm 22:53 Windy with Snow Likely 29 -1.7 22 -5.6 75 75 NW 22 35 29.86 1011 9 14.48406 0.001 0.001
11:19 pm 23:19 Cloudy 28 -2.2 21 -6.1 75 75 NW 15 24 30.02 1016 10 16.0934 0.001 0.001
11:53 pm 23:53 Windy with Snow Likely 28 -2.2 21 -6.1 75 75 NW 20 31 29.89 1012 5 8.0467 0.001 0.001
11:57 pm 23:57 Cloudy with Light Snow 27 -2.8 21 -6.1 78 78 NW 16 26 30.04 1017 2.5 4.02335 0.001 0.001

Powered by AerisWeather